Find Seasat 1

NORAD ID: 10967 Int'l Des: 1978-064 Owner: JPL Country: US operational
LEOCIRCULARRETROGRADE

リアルタイム位置

3D地球を読み込み中...

Seasat 1について

説明を読み込み中...

次回通過

Passes for default location (London). Set your location on the main map for personalized predictions.

高度履歴

Loading altitude history...

軌道要素

1 10967U 78064A 26105.50284442 .00000121 00000-0 72291-4 0 9990
2 10967 108.0071 202.7384 0002785 266.6526 93.4301 14.46192194511832
Epoch: Apr 15, 2026 • Age: 10 hours

現在のステータス

高度 750.8 km
速度 7.48 km/s
衛星直下点 65.14°N, 20.14°W
打ち上げ日 Jun 27, 1978
運用期間 47.8 years
タイプ other

技術仕様

分類 Payload
質量 1290.00 kg
乾燥質量 1290.00 kg
総質量 2290.00 kg
長さ 12.00 m
直径 1.50 m
スパン 12.00 m
形状 Cyl + 3 Pan
製造者 LMSC
バスタイプ Seasat
フェーズステータス Attached in Orbit
所有者/国 JPL/US

Most Searched